Weather History for Louisa, VA

Change the Weather History Date:

Friday, January 3, 2014

  Actual Average (KCHO) Record (KCHO)
Temperature  
Mean Temperature 22 °F 35 °F  
Max Temperature 33 °F 44 °F 72 °F (2004)
Min Temperature 10 °F 26 °F 6 °F (1918)
Degree Days  
Heating Degree Days 42 30  
Month to date heating degree days 90  
Since 1 July heating degree days 1826  
Cooling Degree Days 0 0  
Month to date cooling degree days 0  
Year to date cooling degree days 0  
Moisture  
Dew Point 10 °F    
Average Humidity 59    
Maximum Humidity 100    
Minimum Humidity 31    
Precipitation  
Precipitation 0.06 in 0.09 in 0.25 in (2003)
Month to date precipitation 0.27  
Year to date precipitation 0.27  
Sea Level Pressure  
Sea Level Pressure 30.16 in    
Wind  
Wind Speed 7 mph (NNW)    
Max Wind Speed 16 mph    
Max Gust Speed 29 mph    
Visibility 10 miles    
Events      
T = Trace of Precipitation, MM = Missing Value Source: NWS Daily Summary

Daily Weather History Graph

Daily Weather History Graph

Search for Another Location

Airport:

Trip Planner

Search our weather history database for the weather conditions in past years. The results will help you decide how hot, cold, wet, or windy it might be!

Date:

Astronomy

Jan. 03, 2014 Rise Set
Actual Time 7:28 AM EST 5:04 PM EST
Civil Twilight 6:58 AM EST 5:34 PM EST
Nautical Twilight 6:26 AM EST 6:07 PM EST
Astronomical Twilight 5:54 AM EST 6:38 PM EST
Moon 8:55 AM EST (1/3) 8:08 PM EST (1/3)
Length of Visible Light 10h 35m
Length of Day
9h 36m
Waxing Crescent, 8% of the Moon is Illuminated
Jan 3
Waxing Crescent
Jan 7
First Quarter
Jan 15
Full
Jan 24
Last Quarter
Jan 30
New

Hourly Weather History & Observations

Time (EST) Temp. Windchill Dew Point Humidity Pressure Visibility Wind Dir Wind Speed Gust Speed Precip Events Conditions
12:15 AM 33.8 °F 28.6 °F 32.0 °F 93% 29.60 in 4.0 mi North 5.8 mph - N/A   Overcast
12:35 AM 32.0 °F 27.5 °F 30.2 °F 93% 29.62 in 5.0 mi NNW 4.6 mph - N/A   Overcast
12:55 AM 32.0 °F 26.4 °F 30.2 °F 93% 29.63 in 5.0 mi NNW 5.8 mph - N/A   Overcast
1:15 AM 32.0 °F 25.6 °F 30.2 °F 93% 29.65 in 7.0 mi NW 6.9 mph - N/A   Overcast
1:35 AM 30.2 °F 25.4 °F 30.2 °F 100% 29.66 in 5.0 mi NW 4.6 mph - N/A   Mostly Cloudy
1:55 AM 32.0 °F 27.5 °F 30.2 °F 93% 29.67 in 7.0 mi NNW 4.6 mph - N/A   Overcast
2:15 AM 32.0 °F 26.4 °F 30.2 °F 93% 29.69 in 7.0 mi NW 5.8 mph - 0.02 in   Overcast
2:35 AM 32.0 °F 22.5 °F 28.4 °F 87% 29.71 in 10.0 mi NW 12.7 mph 18.4 mph 0.03 in   Overcast
2:55 AM 30.2 °F 20.8 °F 23.0 °F 75% 29.73 in 10.0 mi NW 11.5 mph 23.0 mph 0.05 in   Mostly Cloudy
3:15 AM 28.4 °F 18.5 °F 21.2 °F 74% 29.76 in 10.0 mi NW 11.5 mph 19.6 mph N/A   Scattered Clouds
3:35 AM 26.6 °F 16.8 °F 19.4 °F 74% 29.78 in 10.0 mi NW 10.4 mph 20.7 mph N/A   Clear
3:55 AM 26.6 °F 15.7 °F 17.6 °F 69% 29.81 in 10.0 mi NW 12.7 mph 18.4 mph 0.01 in   Clear
4:15 AM 24.8 °F 14.6 °F 15.8 °F 69% 29.84 in 10.0 mi NW 10.4 mph 24.2 mph N/A   Clear
4:35 AM 24.8 °F 11.9 °F 12.2 °F 59% 29.86 in 10.0 mi NW 16.1 mph 28.8 mph N/A   Clear
4:55 AM 23.0 °F 11.7 °F 10.4 °F 59% 29.89 in 10.0 mi NW 11.5 mph 24.2 mph N/A   Scattered Clouds
5:15 AM 21.2 °F 10.9 °F 12.2 °F 68% 29.92 in 10.0 mi NW 9.2 mph - N/A   Scattered Clouds
5:35 AM 21.2 °F 9.5 °F 10.4 °F 63% 29.94 in 10.0 mi NW 11.5 mph 17.3 mph N/A   Scattered Clouds
5:55 AM 21.2 °F 10.1 °F 10.4 °F 63% 29.96 in 10.0 mi NW 10.4 mph - N/A   Mostly Cloudy
6:15 AM 21.2 °F 10.1 °F 10.4 °F 63% 29.98 in 10.0 mi NW 10.4 mph 18.4 mph N/A   Mostly Cloudy
6:35 AM 21.2 °F 10.9 °F 10.4 °F 63% 30.01 in 10.0 mi NW 9.2 mph - N/A   Scattered Clouds
6:55 AM 21.2 °F 9.5 °F 8.6 °F 58% 30.04 in 10.0 mi NNW 11.5 mph - N/A   Clear
7:15 AM 19.4 °F 8.6 °F 8.6 °F 63% 30.06 in 10.0 mi NNW 9.2 mph 17.3 mph N/A   Clear
7:35 AM 19.4 °F 12.8 °F 8.6 °F 63% 30.08 in 10.0 mi NW 4.6 mph - N/A   Clear
7:55 AM 19.4 °F 6.6 °F 8.6 °F 63% 30.10 in 10.0 mi NW 12.7 mph - N/A   Clear
8:15 AM 19.4 °F 8.6 °F 8.6 °F 63% 30.13 in 10.0 mi WNW 9.2 mph - N/A   Clear
8:35 AM 21.2 °F 10.1 °F 8.6 °F 58% 30.14 in 10.0 mi NW 10.4 mph 16.1 mph N/A   Clear
8:55 AM 21.2 °F 13.6 °F 8.6 °F 58% 30.15 in 10.0 mi NW 5.8 mph - N/A   Clear
9:15 AM 23.0 °F 13.9 °F 8.6 °F 54% 30.17 in 10.0 mi NNW 8.1 mph - N/A   Clear
9:35 AM 23.0 °F 10.6 °F 8.6 °F 54% 30.19 in 10.0 mi NW 13.8 mph 23.0 mph N/A   Clear
9:55 AM 23.0 °F 9.6 °F 6.8 °F 50% 30.20 in 10.0 mi NNW 16.1 mph 25.3 mph N/A   Clear
10:15 AM 24.8 °F 16.9 °F 6.8 °F 46% 30.20 in 10.0 mi NNW 6.9 mph 19.6 mph N/A   Clear
10:35 AM 24.8 °F 14.0 °F 6.8 °F 46% 30.22 in 10.0 mi NW 11.5 mph 20.7 mph N/A   Clear
10:55 AM 24.8 °F 14.0 °F 6.8 °F 46% 30.24 in 10.0 mi NW 11.5 mph 18.4 mph N/A   Clear
11:15 AM 24.8 °F 11.9 °F 3.2 °F 40% 30.23 in 10.0 mi NW 16.1 mph 21.9 mph N/A   Clear
11:35 AM 24.8 °F 16.9 °F 6.8 °F 46% 30.24 in 10.0 mi NW 6.9 mph - N/A   Clear
11:55 AM 26.6 °F 18.2 °F 6.8 °F 43% 30.24 in 10.0 mi NNW 8.1 mph - N/A   Clear
12:15 PM 26.6 °F 18.2 °F 6.8 °F 43% 30.25 in 10.0 mi NNW 8.1 mph 17.3 mph N/A   Clear
12:35 PM 26.6 °F 19.1 °F 6.8 °F 43% 30.24 in 10.0 mi NW 6.9 mph 17.3 mph N/A   Clear
12:55 PM 26.6 °F 17.5 °F 5.0 °F 40% 30.25 in 10.0 mi NNW 9.2 mph 16.1 mph N/A   Clear
1:15 PM 26.6 °F 17.5 °F 5.0 °F 40% 30.26 in 10.0 mi NNW 9.2 mph - N/A   Clear
1:35 PM 28.4 °F 23.3 °F 6.8 °F 40% 30.27 in 10.0 mi NNW 4.6 mph - N/A   Clear
1:55 PM 28.4 °F 20.4 °F 5.0 °F 37% 30.28 in 10.0 mi NNW 8.1 mph 16.1 mph N/A   Clear
2:15 PM 28.4 °F 19.7 °F 5.0 °F 37% 30.28 in 10.0 mi NNW 9.2 mph - N/A   Clear
2:35 PM 28.4 °F 19.1 °F 5.0 °F 37% 30.28 in 10.0 mi WNW 10.4 mph - N/A   Clear
2:55 PM 28.4 °F 19.7 °F 3.2 °F 34% 30.29 in 10.0 mi NNW 9.2 mph - N/A   Clear
3:15 PM 28.4 °F 19.7 °F 5.0 °F 37% 30.31 in 10.0 mi WNW 9.2 mph - N/A   Clear
3:35 PM 28.4 °F 19.7 °F 1.4 °F 31% 30.32 in 10.0 mi North 9.2 mph - N/A   Clear
3:55 PM 26.6 °F 19.1 °F 1.4 °F 34% 30.33 in 10.0 mi NNW 6.9 mph - N/A   Clear
4:15 PM 26.6 °F 18.2 °F 1.4 °F 34% 30.34 in 10.0 mi North 8.1 mph - N/A   Clear
4:35 PM 26.6 °F 21.2 °F 1.4 °F 34% 30.35 in 10.0 mi North 4.6 mph - N/A   Clear
4:55 PM 24.8 °F - 1.4 °F 36% 30.36 in 10.0 mi Calm Calm - N/A   Clear
5:15 PM 24.8 °F 19.1 °F 1.4 °F 36% 30.37 in 10.0 mi North 4.6 mph - N/A   Clear
5:35 PM 24.8 °F 20.5 °F 3.2 °F 40% 30.37 in 10.0 mi North 3.5 mph - N/A   Clear
5:55 PM 23.0 °F - 1.4 °F 39% 30.38 in 10.0 mi Calm Calm - N/A   Clear
6:15 PM 21.2 °F 16.4 °F 3.2 °F 46% 30.39 in 10.0 mi North 3.5 mph - N/A   Clear
6:35 PM 19.4 °F 14.3 °F 3.2 °F 49% 30.39 in 10.0 mi North 3.5 mph - N/A   Clear
6:55 PM 21.2 °F - 3.2 °F 46% 30.40 in 10.0 mi Calm Calm - N/A   Clear
7:15 PM 21.2 °F 16.4 °F 5.0 °F 50% 30.42 in 10.0 mi ENE 3.5 mph - N/A   Clear
7:35 PM 19.4 °F 12.8 °F 6.8 °F 58% 30.42 in 10.0 mi East 4.6 mph - N/A   Clear
7:55 PM 17.6 °F 9.3 °F 6.8 °F 63% 30.43 in 10.0 mi NE 5.8 mph - N/A   Clear
8:15 PM 17.6 °F 10.7 °F 6.8 °F 63% 30.43 in 10.0 mi East 4.6 mph - N/A   Clear
8:35 PM 17.6 °F - 6.8 °F 63% 30.44 in 10.0 mi Calm Calm - N/A   Clear
8:55 PM 15.8 °F - 6.8 °F 68% 30.44 in 10.0 mi Calm Calm - N/A   Clear
9:15 PM 14.0 °F 8.2 °F 6.8 °F 73% 30.44 in 10.0 mi NE 3.5 mph - N/A   Clear
9:35 PM 15.8 °F - 6.8 °F 68% 30.45 in 10.0 mi Calm Calm - N/A   Clear
9:55 PM 15.8 °F 10.2 °F 6.8 °F 68% 30.45 in 10.0 mi NE 3.5 mph - N/A   Clear
10:15 PM 14.0 °F - 6.8 °F 73% 30.46 in 10.0 mi Calm Calm - N/A   Clear
10:35 PM 12.2 °F - 6.8 °F 79% 30.46 in 10.0 mi Calm Calm - N/A   Clear
10:55 PM 12.2 °F - 6.8 °F 79% 30.46 in 10.0 mi Calm Calm - N/A   Clear
11:15 PM 12.2 °F - 6.8 °F 79% 30.45 in 10.0 mi Calm Calm - N/A   Clear
11:35 PM 12.2 °F - 6.8 °F 79% 30.46 in 10.0 mi Calm Calm - N/A   Clear
11:55 PM 10.4 °F - 6.8 °F 85% 30.46 in 10.0 mi Calm Calm - N/A   Clear